Location: Newark
(60.6561°N, 46.5772°E)
Time: 20:53:38
(UTC+00:00)

N. Korean satellite - Visible Passes

Search period start: 25 September 2020 00:00
Search period end: 05 October 2020 00:00
Orbit: 455 x 503 km, 97.2° (Epoch: 25 September)

Date Brightness Start Highest point End Pass type
(mag) Time Alt. Az. Time Alt. Az. Time Alt. Az.
26 Sep 9.6 01:42:45 10° NE 01:45:38 21° E 01:48:28 10° SE visible
27 Sep 10.0 01:17:27 10° NE 01:19:18 13° E 01:21:08 10° ESE visible
29 Sep 9.1 01:57:49 10° NNE 02:01:01 28° E 02:04:11 10° SSE visible
30 Sep 9.8 01:32:14 10° NE 01:34:45 17° E 01:37:13 10° SE visible
01 Oct 10.3 01:07:27 10° ENE 01:08:22 11° E 01:09:17 10° E visible
02 Oct 8.4 02:12:56 10° NNE 02:16:22 37° E 02:19:43 10° SSE visible
03 Oct 9.4 01:47:11 10° NE 01:50:07 23° E 01:53:01 10° SE visible
04 Oct 10.0 01:21:47 10° NE 01:23:48 14° E 01:25:47 10° ESE visible
